ASTRA 1L

Last updated on Wed Dec 17 2025 00:02:49 GMT+0000 (Coordinated Universal Time)

1 31306U 07016A 25349.49004705 .00000138 00000+0 00000+0 0 9999 2 31306 0.8474 82.7710 0003343 170.6524 26.4086 1.00256803 43144
UTC large
Height (km)
Speed (km/s)
/
Latitude / Longitude
Inclination (degrees)
Orbital Period (minutes)
Azimuth
Elevation
Range (km)
Doppler Factor

Next 0 passes for location: London (51.5072 / 0.1276)

Sorry there are no passes over London.